Weather History for Tupelo, MS

Change the Weather History Date:

Thursday, March 14, 2013

  Actual Average Record
Temperature  
Mean Temperature 44 °F 54 °F  
Max Temperature 60 °F 65 °F 85 °F (1967)
Min Temperature 27 °F 42 °F 19 °F (1993)
Degree Days  
Heating Degree Days 21 12  
Month to date heating degree days 278 190  
Since 1 July heating degree days 2504 2621  
Cooling Degree Days 0 0  
Month to date cooling degree days 0 0  
Year to date cooling degree days 6 2  
Moisture  
Dew Point 27 °F    
Average Humidity 61    
Maximum Humidity 92    
Minimum Humidity 30    
Precipitation  
Precipitation 0.00 in 0.15 in 4.52 in (1964)
Month to date precipitation 1.37 2.31  
Year to date precipitation 13.80 11.75  
Snow  
Snow 0.00 in 0.00 in T in (1999)
Month to date snowfall T 0.2  
Since 1 July snowfall T 2.0  
Snow Depth 0.00 in    
Sea Level Pressure  
Sea Level Pressure 30.36 in    
Wind  
Wind Speed 3 mph (South)    
Max Wind Speed 10 mph    
Max Gust Speed 13 mph    
Visibility 10 miles    
Events      
T = Trace of Precipitation, MM = Missing Value Source: NWS Daily Summary

Daily Weather History Graph

Daily Weather History Graph

Search for Another Location

Airport:

Trip Planner

Search our weather history database for the weather conditions in past years. The results will help you decide how hot, cold, wet, or windy it might be!

Date:

Astronomy

Mar. 14, 2013 Rise Set
Actual Time 7:06 AM CDT 7:02 PM CDT
Civil Twilight 6:41 AM CDT 7:27 PM CDT
Nautical Twilight 6:12 AM CDT 7:56 PM CDT
Astronomical Twilight 5:43 AM CDT 8:25 PM CDT
Moon 8:29 AM CDT (3/14) 10:07 PM CDT (3/14)
Length of Visible Light 12h 45m
Length of Day
11h 55m
Waxing Crescent, 9% of the Moon is Illuminated
Mar 14
Waxing Crescent
Mar 19
First Quarter
Mar 27
Full
Apr 2
Last Quarter
Apr 10
New

Hourly Weather History & Observations

Time (CDT) Temp. Windchill Dew Point Humidity Pressure Visibility Wind Dir Wind Speed Gust Speed Precip Events Conditions
12:53 AM 33.1 °F - 25.0 °F 72% 30.43 in 10.0 mi Calm Calm - N/A   Clear
1:53 AM 30.9 °F - 25.0 °F 79% 30.43 in 10.0 mi Calm Calm - N/A   Clear
2:53 AM 30.0 °F - 25.0 °F 82% 30.42 in 10.0 mi Calm Calm - N/A   Clear
3:53 AM 30.0 °F - 25.0 °F 82% 30.41 in 10.0 mi Calm Calm - N/A   Clear
4:53 AM 27.0 °F 23.0 °F 24.1 °F 89% 30.40 in 10.0 mi NE 3.5 mph - N/A   Clear
5:53 AM 28.9 °F - 25.0 °F 85% 30.42 in 10.0 mi Calm Calm - N/A   Clear
6:53 AM 28.9 °F - 24.1 °F 82% 30.43 in 10.0 mi Calm Calm - N/A   Clear
7:53 AM 30.9 °F - 26.1 °F 82% 30.45 in 10.0 mi Calm Calm - N/A   Clear
8:53 AM 36.0 °F - 25.0 °F 64% 30.48 in 10.0 mi Calm Calm - N/A   Clear
9:53 AM 41.0 °F 38.0 °F 25.0 °F 53% 30.44 in 10.0 mi South 4.6 mph - N/A   Clear
10:53 AM 45.0 °F 42.6 °F 21.0 °F 39% 30.44 in 10.0 mi SE 4.6 mph - N/A   Clear
11:53 AM 48.0 °F - 21.9 °F 36% 30.43 in 10.0 mi NNE 3.5 mph - N/A   Clear
12:53 PM 51.1 °F - 23.0 °F 33% 30.41 in 10.0 mi Calm Calm - N/A   Clear
1:53 PM 54.0 °F - 24.1 °F 31% 30.37 in 10.0 mi Calm Calm - N/A   Clear
2:53 PM 55.9 °F - 25.0 °F 30% 30.33 in 10.0 mi South 5.8 mph - N/A   Scattered Clouds
3:53 PM 59.0 °F - 28.0 °F 31% 30.30 in 10.0 mi SSW 6.9 mph - N/A   Clear
4:53 PM 59.0 °F - 28.0 °F 31% 30.28 in 10.0 mi South 5.8 mph - N/A   Clear
5:53 PM 57.9 °F - 28.9 °F 33% 30.26 in 10.0 mi South 6.9 mph - N/A   Clear
6:53 PM 53.1 °F - 32.0 °F 45% 30.25 in 10.0 mi South 6.9 mph - N/A   Clear
7:53 PM 52.0 °F - 30.9 °F 45% 30.23 in 10.0 mi South 4.6 mph - N/A   Clear
8:53 PM 48.9 °F - 32.0 °F 52% 30.23 in 10.0 mi SW 3.5 mph - N/A   Clear
9:53 PM 46.0 °F - 34.0 °F 63% 30.24 in 10.0 mi Calm Calm - N/A   Clear
10:53 PM 46.9 °F - 32.0 °F 56% 30.25 in 10.0 mi SE 3.5 mph - N/A   Clear
11:53 PM 45.0 °F 43.5 °F 32.0 °F 60% 30.23 in 10.0 mi SSW 3.5 mph - N/A   Clear